EW6294 Weather Reports


time (UTC)temp
F
wind
direction
speed
knots
gust
knots
rain 1hr
in
rain 24hr
in
rain mn
in
humidity
%
barometer
mb
20260502123017 46 0.0 3.5 0.00 0.00 0.00 40 1015.0
20260502113036 52 270 2.6 12.2 0.00 0.00 0.00 33 1016.2
20260502110017 51 270 1.7 7.0 0.00 0.00 0.00 35 1016.5
20260502103017 50 270 1.7 8.7 0.00 0.00 0.00 37 1015.8
20260502070016 49 180 1.7 6.1 0.00 0.00 0.00 40 1016.5
20260502063016 49 180 1.7 6.1 0.00 0.00 0.00 42 1016.0
20260502060136 49 180 2.6 7.0 0.00 0.00 0.00 42 1016.6
20260502053015 49 158 4.3 10.4 0.00 0.00 0.00 44 1016.4
20260502050016 50 158 4.3 11.3 0.00 0.00 0.00 42 1016.5
20260502043015 48 0.0 3.5 0.00 0.00 0.00 43 1016.3
20260502040035 49 0.0 2.6 0.00 0.00 0.00 41 1015.9
20260502033015 52 23 0.9 2.6 0.00 0.00 0.00 40 1015.8
20260502030015 55 23 0.9 2.6 0.00 0.00 0.00 35 1015.9
20260502023017 60 0.0 1.7 0.00 0.00 0.00 27 1015.5
20260502020037 63 0 0.9 4.3 0.00 0.00 0.00 24 1015.9
20260502013017 64 0 1.7 6.1 0.00 0.00 0.00 23 1015.5
20260502010017 65 45 2.6 8.7 0.00 0.00 0.00 22 1015.5
20260502003017 65 45 2.6 8.7 0.00 0.00 0.00 22 1015.4
20260502000017 66 90 2.6 7.8 0.00 0.00 0.00 22 1015.5
20260501233037 66 45 2.6 9.6 0.00 0.00 0.00 22 1015.6
20260501230037 67 45 1.7 7.8 0.00 0.00 0.00 22 1015.9
20260501223017 66 45 3.5 9.6 0.00 0.00 0.00 22 1015.3
20260501220036 65 23 3.5 9.6 0.00 0.00 0.00 22 1015.4
20260501213017 65 45 3.5 10.4 0.00 0.00 0.00 22 1016.2
20260501210016 66 158 2.6 7.0 0.00 0.00 0.00 23 1017.1
20260501203036 65 45 2.6 7.0 0.00 0.00 0.00 24 1016.8
20260501200016 64 248 2.6 10.4 0.00 0.00 0.00 24 1016.9
20260501193016 62 113 2.6 10.4 0.00 0.00 0.00 25 1016.9
20260501190016 63 225 2.6 7.8 0.00 0.00 0.00 25 1017.2
20260501183016 60 338 3.5 9.6 0.00 0.00 0.00 27 1017.0
20260501180016 62 135 1.7 6.1 0.00 0.00 0.00 25 1017.6
20260501173016 60 68 2.6 7.8 0.00 0.00 0.00 26 1017.7
20260501170015 60 248 1.7 7.0 0.00 0.00 0.00 27 1018.3
20260501163015 58 270 2.6 8.7 0.00 0.00 0.00 27 1017.8